TimePST,TemperatureF,Dew PointF,Humidity,Sea Level PressureIn,VisibilityMPH,Wind Direction,Wind SpeedMPH,Gust SpeedMPH,PrecipitationIn,Events,Conditions,WindDirDegrees,DateUTC
12:00 AM,43.0,40.5,91,29.63,-9999.0,ENE,4.6,-,N/A,,Unknown,60,2012-11-18 08:00:00
1:00 AM,42.8,39.9,90,29.64,-9999.0,East,3.5,-,N/A,,Unknown,90,2012-11-18 09:00:00
2:00 AM,41.4,39.6,93,29.65,-9999.0,South,1.2,-,0.02,,Unknown,180,2012-11-18 10:00:00
3:00 AM,41.0,39.7,95,29.67,-9999.0,NNE,2.3,-,0.08,,Unknown,30,2012-11-18 11:00:00
4:00 AM,42,40,92,29.67,,East,3.5,,,,,80,2012-11-18 12:00:00
4:00 AM,41.7,40.5,95,29.67,-9999.0,East,3.5,-,0.03,,Unknown,80,2012-11-18 12:00:00
5:00 AM,41.7,40.3,95,29.68,-9999.0,ENE,3.5,-,0.12,,Unknown,70,2012-11-18 13:00:00
6:00 AM,42.4,40.6,93,29.68,-9999.0,East,4.6,-,0.04,,Unknown,90,2012-11-18 14:00:00
7:00 AM,42.3,40.3,93,29.68,-9999.0,East,4.6,-,N/A,,Unknown,80,2012-11-18 15:00:00
8:00 AM,42.1,40.1,93,29.68,-9999.0,East,4.6,-,0.02,,Unknown,80,2012-11-18 16:00:00
9:00 AM,42.3,40.5,93,29.68,-9999.0,ENE,5.8,-,0.04,,Unknown,70,2012-11-18 17:00:00
10:00 AM,43,40,87,29.69,,East,5.8,,,,,80,2012-11-18 18:00:00
10:00 AM,42.8,40.5,91,29.69,-9999.0,East,5.8,-,0.03,,Unknown,80,2012-11-18 18:00:00
11:00 AM,43.0,40.8,92,29.69,-9999.0,ENE,3.5,-,0.02,,Unknown,70,2012-11-18 19:00:00
12:00 PM,43.5,40.8,90,29.68,-9999.0,East,4.6,-,N/A,,Unknown,80,2012-11-18 20:00:00
1:00 PM,44.2,40.5,87,29.67,-9999.0,East,6.9,-,N/A,,Unknown,90,2012-11-18 21:00:00
2:00 PM,44.1,39.9,85,29.64,-9999.0,ENE,6.9,-,N/A,,Unknown,70,2012-11-18 22:00:00
3:00 PM,44.4,39.7,84,29.60,-9999.0,ENE,8.1,-,0.01,,Unknown,70,2012-11-18 23:00:00
4:00 PM,45,40,75,29.57,,ENE,9.2,,,,,70,2012-11-19 00:00:00
4:00 PM,44.6,39.6,82,29.57,-9999.0,ENE,9.2,-,N/A,,Unknown,70,2012-11-19 00:00:00
5:00 PM,44.4,39.7,84,29.52,-9999.0,ENE,10.4,20.7,0.03,,Unknown,70,2012-11-19 01:00:00
6:00 PM,44.6,39.9,84,29.47,-9999.0,ENE,11.5,21.9,0.06,,Unknown,70,2012-11-19 02:00:00
7:00 PM,44.2,40.6,87,29.43,-9999.0,East,11.5,19.6,0.08,,Unknown,80,2012-11-19 03:00:00
8:00 PM,43.9,41.0,90,29.45,-9999.0,East,10.4,19.6,0.21,,Unknown,80,2012-11-19 04:00:00
9:00 PM,44.2,41.4,90,29.50,-9999.0,ENE,11.5,20.7,0.13,,Unknown,70,2012-11-19 05:00:00
10:00 PM,45,42,84,29.50,,ENE,6.9,,,,,70,2012-11-19 06:00:00
10:00 PM,45.0,41.7,88,29.50,-9999.0,ENE,6.9,-,N/A,,Unknown,70,2012-11-19 06:00:00
11:00 PM,45.3,42.6,90,29.49,-9999.0,ENE,4.6,-,0.03,,Unknown,60,2012-11-19 07:00:00